Time,TemperatureF,DewpointF,PressureIn,WindDirection,WindDirectionDegrees,WindSpeedMPH,WindSpeedGustMPH,Humidity,HourlyPrecipIn,Conditions,Clouds,dailyrainin,SoftwareType,DateUTC
2013-02-19 00:02:00,40.0,35.0,29.76,WNW,293,11.0,11.0,83,0.00,,,0.69,,2013-02-19 06:02:00,
2013-02-19 00:11:00,40.0,35.0,29.76,WNW,293,11.0,11.0,83,0.00,,,0.69,,2013-02-19 06:11:00,
2013-02-19 00:21:00,40.0,35.0,29.78,West,259,5.0,10.0,81,0.00,,,0.69,,2013-02-19 06:21:00,
2013-02-19 00:32:00,40.0,35.0,29.78,West,276,6.0,15.0,82,0.00,,,0.69,,2013-02-19 06:32:00,
2013-02-19 00:42:00,40.0,35.0,29.78,West,276,6.0,15.0,82,0.00,,,0.69,,2013-02-19 06:42:00,
2013-02-19 00:52:00,40.0,35.0,29.79,West,259,8.0,20.0,82,0.00,,,0.69,,2013-02-19 06:52:00,
2013-02-19 01:01:00,40.0,35.0,29.80,West,262,8.0,15.0,82,0.00,,,0.69,,2013-02-19 07:01:00,
2013-02-19 01:11:00,40.0,35.0,29.80,West,262,8.0,15.0,82,0.00,,,0.69,,2013-02-19 07:11:00,
2013-02-19 01:22:00,39.0,34.0,29.80,West,279,10.0,11.0,82,0.00,,,0.69,,2013-02-19 07:22:00,
2013-02-19 01:32:00,39.0,33.0,29.82,WNW,283,9.0,17.0,80,0.00,,,0.69,,2013-02-19 07:32:00,
2013-02-19 01:42:00,39.0,33.0,29.82,WNW,283,9.0,17.0,80,0.00,,,0.69,,2013-02-19 07:42:00,
2013-02-19 01:52:00,38.0,33.0,29.82,West,281,6.0,12.0,81,0.00,,,0.69,,2013-02-19 07:52:00,
2013-02-19 02:01:00,38.0,33.0,29.82,West,281,6.0,12.0,81,0.00,,,0.69,,2013-02-19 08:01:00,
2013-02-19 02:11:00,38.0,33.0,29.82,West,281,6.0,12.0,81,0.00,,,0.69,,2013-02-19 08:11:00,
2013-02-19 02:21:00,36.0,29.0,29.85,WNW,300,13.0,14.0,74,0.00,,,0.69,,2013-02-19 08:21:00,
2013-02-19 02:31:00,36.0,28.0,29.86,WNW,282,17.0,17.0,71,0.00,,,0.69,,2013-02-19 08:31:00,
2013-02-19 02:42:00,36.0,28.0,29.86,WNW,282,17.0,17.0,71,0.00,,,0.69,,2013-02-19 08:42:00,
2013-02-19 02:52:00,35.0,26.0,29.88,WNW,282,10.0,23.0,69,0.00,,,0.69,,2013-02-19 08:52:00,
2013-02-19 03:01:00,35.0,26.0,29.88,West,270,4.0,4.0,69,0.00,,,0.69,,2013-02-19 09:01:00,
2013-02-19 03:11:00,35.0,26.0,29.88,West,270,4.0,4.0,69,0.00,,,0.69,,2013-02-19 09:11:00,
2013-02-19 03:21:00,34.0,25.0,29.88,NW,316,9.0,9.0,70,0.00,,,0.69,,2013-02-19 09:21:00,
2013-02-19 03:32:00,34.0,26.0,29.88,West,273,4.0,4.0,71,0.00,,,0.69,,2013-02-19 09:32:00,
2013-02-19 03:42:00,34.0,26.0,29.88,West,273,4.0,4.0,71,0.00,,,0.69,,2013-02-19 09:42:00,
2013-02-19 03:53:00,34.0,26.0,29.90,WSW,254,6.0,6.0,72,0.00,,,0.69,,2013-02-19 09:53:00,
2013-02-19 04:01:00,34.0,26.0,29.90,West,267,3.0,6.0,73,0.00,,,0.69,,2013-02-19 10:01:00,
2013-02-19 04:11:00,34.0,26.0,29.90,West,267,3.0,6.0,73,0.00,,,0.69,,2013-02-19 10:11:00,
2013-02-19 04:21:00,33.0,23.0,29.91,West,266,6.0,10.0,66,0.00,,,0.69,,2013-02-19 10:21:00,
2013-02-19 04:31:00,33.0,23.0,29.92,West,266,9.0,14.0,67,0.00,,,0.69,,2013-02-19 10:31:00,
2013-02-19 04:41:00,33.0,23.0,29.92,West,266,9.0,14.0,67,0.00,,,0.69,,2013-02-19 10:41:00,
2013-02-19 04:52:00,32.0,23.0,29.92,West,273,5.0,10.0,69,0.00,,,0.69,,2013-02-19 10:52:00,
2013-02-19 05:01:00,32.0,23.0,29.93,West,268,4.0,10.0,70,0.00,,,0.69,,2013-02-19 11:01:00,
2013-02-19 05:11:00,32.0,23.0,29.93,West,268,4.0,10.0,70,0.00,,,0.69,,2013-02-19 11:11:00,
2013-02-19 05:21:00,32.0,23.0,29.94,WSW,250,5.0,5.0,68,0.00,,,0.69,,2013-02-19 11:21:00,
2013-02-19 05:32:00,31.0,21.0,29.94,WNW,297,7.0,12.0,67,0.00,,,0.69,,2013-02-19 11:32:00,
2013-02-19 05:42:00,31.0,21.0,29.94,WNW,297,7.0,12.0,67,0.00,,,0.69,,2013-02-19 11:42:00,
2013-02-19 05:52:00,31.0,21.0,29.95,West,280,12.0,19.0,66,0.00,,,0.69,,2013-02-19 11:52:00,
2013-02-19 06:01:00,31.0,22.0,29.96,WSW,247,4.0,13.0,68,0.00,,,0.69,,2013-02-19 12:01:00,
2013-02-19 06:12:00,31.0,22.0,29.96,WSW,247,4.0,13.0,68,0.00,,,0.69,,2013-02-19 12:12:00,
2013-02-19 06:22:00,31.0,22.0,29.96,West,273,5.0,10.0,69,0.00,,,0.69,,2013-02-19 12:22:00,
2013-02-19 06:32:00,31.0,22.0,29.97,West,265,8.0,10.0,69,0.00,,,0.69,,2013-02-19 12:32:00,
2013-02-19 06:42:00,31.0,22.0,29.97,West,265,8.0,10.0,69,0.00,,,0.69,,2013-02-19 12:42:00,
2013-02-19 06:52:00,30.0,21.0,29.98,West,281,10.0,10.0,68,0.00,,,0.69,,2013-02-19 12:52:00,
2013-02-19 07:02:00,30.0,20.0,29.99,WNW,286,10.0,19.0,66,0.00,,,0.69,,2013-02-19 13:02:00,
2013-02-19 07:11:00,30.0,20.0,29.99,WNW,286,10.0,19.0,66,0.00,,,0.69,,2013-02-19 13:11:00,
2013-02-19 07:22:00,30.0,20.0,29.99,West,273,10.0,10.0,65,0.00,,,0.69,,2013-02-19 13:22:00,
2013-02-19 07:32:00,30.0,20.0,30.00,West,281,7.0,10.0,65,0.00,,,0.69,,2013-02-19 13:32:00,
2013-02-19 07:41:00,30.0,20.0,30.00,West,281,7.0,10.0,65,0.00,,,0.69,,2013-02-19 13:41:00,
2013-02-19 07:52:00,30.0,20.0,30.00,WSW,254,3.0,6.0,66,0.00,,,0.69,,2013-02-19 13:52:00,
2013-02-19 08:01:00,30.0,20.0,30.03,WSW,254,4.0,10.0,67,0.00,,,0.69,,2013-02-19 14:01:00,
2013-02-19 08:11:00,30.0,20.0,30.03,WSW,254,4.0,10.0,67,0.00,,,0.69,,2013-02-19 14:11:00,
2013-02-19 08:21:00,30.0,21.0,30.03,West,271,8.0,9.0,69,0.00,,,0.69,,2013-02-19 14:21:00,
2013-02-19 08:32:00,30.0,20.0,30.03,West,277,8.0,16.0,67,0.00,,,0.69,,2013-02-19 14:32:00,
2013-02-19 08:42:00,30.0,20.0,30.03,West,277,8.0,16.0,67,0.00,,,0.69,,2013-02-19 14:42:00,
2013-02-19 08:52:00,31.0,21.0,30.04,West,261,12.0,14.0,65,0.00,,,0.69,,2013-02-19 14:52:00,
2013-02-19 09:01:00,31.0,21.0,30.04,WNW,293,3.0,6.0,65,0.00,,,0.69,,2013-02-19 15:01:00,
2013-02-19 09:11:00,31.0,21.0,30.04,WNW,293,3.0,6.0,65,0.00,,,0.69,,2013-02-19 15:11:00,
2013-02-19 09:21:00,32.0,22.0,30.04,WSW,240,4.0,10.0,65,0.00,,,0.69,,2013-02-19 15:21:00,
2013-02-19 09:31:00,32.0,22.0,30.05,West,265,8.0,10.0,66,0.00,,,0.69,,2013-02-19 15:31:00,
2013-02-19 09:42:00,32.0,22.0,30.05,West,265,8.0,10.0,66,0.00,,,0.69,,2013-02-19 15:42:00,
2013-02-19 09:52:00,32.0,21.0,30.05,WNW,294,8.0,17.0,64,0.00,,,0.69,,2013-02-19 15:52:00,
2013-02-19 10:01:00,32.0,20.0,30.06,West,273,6.0,12.0,62,0.00,,,0.69,,2013-02-19 16:01:00,
2013-02-19 10:11:00,32.0,20.0,30.06,West,273,6.0,12.0,62,0.00,,,0.69,,2013-02-19 16:11:00,
2013-02-19 10:21:00,32.0,20.0,30.06,West,263,5.0,10.0,62,0.00,,,0.69,,2013-02-19 16:21:00,
2013-02-19 10:32:00,33.0,21.0,30.07,WNW,286,10.0,11.0,60,0.00,,,0.69,,2013-02-19 16:32:00,
2013-02-19 10:41:00,33.0,21.0,30.07,WNW,286,10.0,11.0,60,0.00,,,0.69,,2013-02-19 16:41:00,
2013-02-19 10:52:00,33.0,21.0,30.07,WSW,255,10.0,14.0,60,0.00,,,0.69,,2013-02-19 16:52:00,
2013-02-19 11:01:00,33.0,21.0,30.09,WNW,283,12.0,13.0,60,0.00,,,0.69,,2013-02-19 17:01:00,
2013-02-19 11:11:00,33.0,21.0,30.09,WNW,283,12.0,13.0,60,0.00,,,0.69,,2013-02-19 17:11:00,
2013-02-19 11:21:00,34.0,21.0,30.09,West,263,8.0,15.0,58,0.00,,,0.69,,2013-02-19 17:21:00,
2013-02-19 11:32:00,34.0,20.0,30.09,West,281,9.0,19.0,57,0.00,,,0.69,,2013-02-19 17:32:00,
2013-02-19 11:41:00,34.0,20.0,30.09,West,281,9.0,19.0,57,0.00,,,0.69,,2013-02-19 17:41:00,
2013-02-19 11:52:00,33.0,20.0,30.10,WNW,292,5.0,14.0,58,0.00,,,0.69,,2013-02-19 17:52:00,
2013-02-19 12:01:00,34.0,21.0,30.12,South,179,6.0,13.0,59,0.00,,,0.69,,2013-02-19 18:01:00,
2013-02-19 12:11:00,34.0,21.0,30.12,South,179,6.0,13.0,59,0.00,,,0.69,,2013-02-19 18:11:00,
2013-02-19 12:21:00,33.0,20.0,30.11,WNW,286,10.0,16.0,58,0.00,,,0.69,,2013-02-19 18:21:00,
2013-02-19 12:31:00,33.0,20.0,30.12,WNW,291,10.0,15.0,58,0.00,,,0.69,,2013-02-19 18:31:00,
2013-02-19 12:41:00,34.0,19.0,30.12,SW,234,9.0,16.0,54,0.00,,,0.69,,2013-02-19 18:41:00,
2013-02-19 12:52:00,34.0,19.0,30.12,SW,234,9.0,16.0,54,0.00,,,0.69,,2013-02-19 18:52:00,
2013-02-19 13:01:00,34.0,18.0,30.12,WNW,283,12.0,13.0,52,0.00,,,0.69,,2013-02-19 19:01:00,
2013-02-19 13:11:00,34.0,18.0,30.12,WNW,283,12.0,13.0,52,0.00,,,0.69,,2013-02-19 19:11:00,
2013-02-19 13:21:00,34.0,19.0,30.12,WNW,282,4.0,11.0,54,0.00,,,0.69,,2013-02-19 19:21:00,
2013-02-19 13:31:00,34.0,20.0,30.12,WSW,238,3.0,17.0,56,0.00,,,0.69,,2013-02-19 19:31:00,
2013-02-19 13:41:00,34.0,20.0,30.12,WSW,238,3.0,17.0,56,0.00,,,0.69,,2013-02-19 19:41:00,
2013-02-19 13:52:00,35.0,19.0,30.13,NW,309,16.0,17.0,52,0.00,,,0.69,,2013-02-19 19:52:00,
2013-02-19 14:01:00,34.0,18.0,30.13,West,267,7.0,16.0,52,0.00,,,0.69,,2013-02-19 20:01:00,
2013-02-19 14:12:00,34.0,18.0,30.13,West,267,7.0,16.0,52,0.00,,,0.69,,2013-02-19 20:12:00,
2013-02-19 14:21:00,35.0,19.0,30.14,West,273,5.0,12.0,51,0.00,,,0.69,,2013-02-19 20:21:00,
2013-02-19 14:32:00,35.0,19.0,30.14,South,171,12.0,13.0,51,0.00,,,0.69,,2013-02-19 20:32:00,
2013-02-19 14:42:00,35.0,19.0,30.14,South,171,12.0,13.0,51,0.00,,,0.69,,2013-02-19 20:42:00,
2013-02-19 14:52:00,37.0,21.0,30.14,SSE,157,5.0,5.0,52,0.00,,,0.69,,2013-02-19 20:52:00,
2013-02-19 15:02:00,36.0,20.0,30.14,WNW,300,8.0,13.0,51,0.00,,,0.69,,2013-02-19 21:02:00,
2013-02-19 15:11:00,36.0,20.0,30.14,WNW,300,8.0,13.0,51,0.00,,,0.69,,2013-02-19 21:11:00,
2013-02-19 15:21:00,36.0,18.0,30.15,NW,320,4.0,10.0,48,0.00,,,0.69,,2013-02-19 21:21:00,
2013-02-19 15:31:00,36.0,17.0,30.15,SW,217,3.0,12.0,46,0.00,,,0.69,,2013-02-19 21:31:00,
2013-02-19 15:42:00,36.0,17.0,30.15,SW,217,3.0,12.0,46,0.00,,,0.69,,2013-02-19 21:42:00,
2013-02-19 15:52:00,36.0,18.0,30.16,West,263,10.0,12.0,48,0.00,,,0.67,,2013-02-19 21:52:00,
2013-02-19 16:02:00,36.0,19.0,30.16,WNW,283,3.0,8.0,49,0.00,,,0.67,,2013-02-19 22:02:00,
2013-02-19 16:11:00,36.0,19.0,30.16,WNW,283,3.0,8.0,49,0.00,,,0.67,,2013-02-19 22:11:00,
2013-02-19 16:21:00,35.0,19.0,30.17,West,276,8.0,13.0,51,0.00,,,0.65,,2013-02-19 22:21:00,
2013-02-19 16:32:00,35.0,18.0,30.17,West,275,14.0,14.0,50,0.00,,,0.64,,2013-02-19 22:32:00,
2013-02-19 16:41:00,35.0,18.0,30.17,West,275,14.0,14.0,50,0.00,,,0.64,,2013-02-19 22:41:00,
2013-02-19 16:52:00,35.0,19.0,30.19,West,269,10.0,12.0,51,0.00,,,0.62,,2013-02-19 22:52:00,
2013-02-19 17:01:00,34.0,18.0,30.19,WNW,300,6.0,14.0,51,0.00,,,0.61,,2013-02-19 23:01:00,
2013-02-19 17:11:00,34.0,18.0,30.19,WNW,300,6.0,14.0,51,0.00,,,0.61,,2013-02-19 23:11:00,
2013-02-19 17:21:00,34.0,18.0,30.20,WNW,300,4.0,4.0,51,0.00,,,0.61,,2013-02-19 23:21:00,
2013-02-19 17:32:00,33.0,16.0,30.21,NW,312,9.0,12.0,50,0.00,,,0.61,,2013-02-19 23:32:00,
2013-02-19 17:41:00,33.0,16.0,30.21,NW,312,9.0,12.0,50,0.00,,,0.61,,2013-02-19 23:41:00,
2013-02-19 17:52:00,32.0,17.0,30.22,WNW,289,7.0,10.0,53,0.00,,,0.61,,2013-02-19 23:52:00,
2013-02-19 18:01:00,32.0,17.0,30.22,NNW,332,4.0,9.0,53,0.00,,,0.60,,2013-02-20 00:01:00,
2013-02-19 18:11:00,32.0,17.0,30.22,NNW,332,4.0,9.0,53,0.00,,,0.60,,2013-02-20 00:11:00,
2013-02-19 18:21:00,31.0,16.0,30.23,NNE,22,3.0,8.0,54,0.00,,,0.57,,2013-02-20 00:21:00,
2013-02-19 18:31:00,31.0,16.0,30.23,West,275,8.0,9.0,54,0.00,,,0.57,,2013-02-20 00:31:00,
2013-02-19 18:42:00,31.0,16.0,30.23,West,275,8.0,9.0,54,0.00,,,0.57,,2013-02-20 00:42:00,
2013-02-19 18:52:00,30.0,17.0,30.24,NW,312,10.0,13.0,57,0.00,,,0.52,,2013-02-20 00:52:00,
2013-02-19 19:02:00,30.0,17.0,30.25,NW,313,6.0,10.0,57,0.00,,,0.50,,2013-02-20 01:02:00,
2013-02-19 19:11:00,30.0,17.0,30.25,NW,313,6.0,10.0,57,0.00,,,0.50,,2013-02-20 01:11:00,
2013-02-19 19:21:00,29.0,15.0,30.25,NNW,339,3.0,4.0,56,0.00,,,0.43,,2013-02-20 01:21:00,
2013-02-19 19:32:00,29.0,17.0,30.26,NNW,336,2.0,4.0,61,0.00,,,0.41,,2013-02-20 01:32:00,
2013-02-19 19:42:00,29.0,17.0,30.26,NNW,336,2.0,4.0,61,0.00,,,0.41,,2013-02-20 01:42:00,
2013-02-19 19:52:00,28.0,18.0,30.26,NNW,342,4.0,4.0,65,0.00,,,0.41,,2013-02-20 01:52:00,
2013-02-19 20:01:00,28.0,18.0,30.27,NNW,342,3.0,6.0,66,0.00,,,0.40,,2013-02-20 02:01:00,
2013-02-19 20:11:00,28.0,18.0,30.27,NNW,342,3.0,6.0,66,0.00,,,0.40,,2013-02-20 02:11:00,
2013-02-19 20:21:00,27.0,17.0,30.27,WNW,303,3.0,3.0,66,0.00,,,0.35,,2013-02-20 02:21:00,
2013-02-19 20:31:00,27.0,17.0,30.27,NNW,340,5.0,6.0,65,0.00,,,0.32,,2013-02-20 02:31:00,
2013-02-19 20:42:00,27.0,17.0,30.27,NNW,340,5.0,6.0,65,0.00,,,0.32,,2013-02-20 02:42:00,
2013-02-19 20:52:00,27.0,17.0,30.27,NW,317,3.0,3.0,65,0.00,,,0.21,,2013-02-20 02:52:00,
2013-02-19 21:01:00,27.0,16.0,30.28,WNW,298,4.0,4.0,64,0.00,,,0.14,,2013-02-20 03:01:00,
2013-02-19 21:12:00,27.0,16.0,30.28,WNW,298,4.0,4.0,64,0.00,,,0.14,,2013-02-20 03:12:00,
2013-02-19 21:22:00,26.0,16.0,30.29,NW,317,4.0,5.0,65,0.00,,,0.07,,2013-02-20 03:22:00,
2013-02-19 21:32:00,26.0,16.0,30.29,NW,306,3.0,5.0,64,0.00,,,0.07,,2013-02-20 03:32:00,
2013-02-19 21:41:00,26.0,16.0,30.29,NW,306,3.0,5.0,64,0.00,,,0.07,,2013-02-20 03:41:00,
2013-02-19 21:52:00,26.0,16.0,30.30,WNW,285,3.0,5.0,64,0.00,,,0.06,,2013-02-20 03:52:00,
2013-02-19 22:01:00,26.0,15.0,30.30,WNW,296,2.0,3.0,63,0.00,,,0.05,,2013-02-20 04:01:00,
2013-02-19 22:11:00,26.0,15.0,30.30,WNW,296,2.0,3.0,63,0.00,,,0.05,,2013-02-20 04:11:00,
2013-02-19 22:21:00,26.0,15.0,30.31,NW,311,1.0,2.0,63,0.00,,,0.04,,2013-02-20 04:21:00,
2013-02-19 22:31:00,26.0,16.0,30.31,NW,311,1.0,3.0,64,0.00,,,0.03,,2013-02-20 04:31:00,
2013-02-19 22:41:00,26.0,16.0,30.31,NW,311,1.0,3.0,64,0.00,,,0.03,,2013-02-20 04:41:00,
2013-02-19 22:52:00,26.0,16.0,30.31,WNW,288,1.0,3.0,65,0.00,,,0.01,,2013-02-20 04:52:00,
2013-02-19 23:02:00,25.0,15.0,30.32,WNW,288,0.0,1.0,66,0.00,,,0.00,,2013-02-20 05:02:00,
2013-02-19 23:12:00,25.0,15.0,30.32,WNW,288,0.0,1.0,66,0.00,,,0.00,,2013-02-20 05:12:00,
2013-02-19 23:22:00,25.0,16.0,30.32,WNW,291,1.0,1.0,67,0.00,,,0.00,,2013-02-20 05:22:00,
2013-02-19 23:32:00,25.0,15.0,30.32,West,275,2.0,5.0,66,0.00,,,0.00,,2013-02-20 05:32:00,
2013-02-19 23:43:00,25.0,15.0,30.32,West,275,2.0,5.0,66,0.00,,,0.00,,2013-02-20 05:43:00,
2013-02-19 23:52:00,25.0,15.0,30.32,WNW,299,2.0,2.0,65,0.00,,,0.00,,2013-02-20 05:52:00,